CAPE
6 6 5 6 7 4 4 5 4 0 1 3 1 1 1 0 2 0 0 0 0 0 0 0 1 1 0 0 0 0 61 279 0 0 0 0 0 0 0 0 0 31 49 132 495 680 642
5 5 5 5 6 5 5 3 2 0 1 2 1 1 1 1 1 1 0 0 0 0 0 1 1 0 0 0 0 0 0 0 0 0 0 0 0 0 0 1 1 0 34 47 276 827 720
6 5 5 5 5 5 5 2 1 1 1 3 1 2 1 1 1 1 0 0 0 0 1 1 0 0 0 0 0 0 0 0 0 0 0 0 0 0 0 0 0 9 36 41 183 424 810
4 6 4 6 6 6 6 3 1 1 1 2 1 3 1 1 1 0 1 0 2 1 0 0 0 0 0 0 0 0 0 0 0 0 0 0 0 0 0 0 0 35 46 0 0 620 868
3 7 6 7 8 7 7 7 1 2 5 2 2 3 4 4 1 0 0 0 2 0 0 0 0 0 0 0 0 0 0 0 0 0 0 0 0 0 0 0 0 9 0 0 0 415 922
8 7 7 7 8 6 6 9 2 1 3 2 6 5 6 2 1 0 0 0 0 0 0 0 0 0 0 0 0 0 0 0 0 0 0 0 0 0 0 0 0 0 0 0 0 0 294
7 7 8 6 7 5 6 9 1 1 3 6 4 7 6 4 1 0 0 0 0 0 0 0 0 0 0 0 0 0 0 0 0 0 0 0 0 0 0 0 0 0 0 0 0 0 5
6 6 5 8 7 5 7 8 1 1 3 5 4 7 4 0 0 0 0 0 0 0 0 0 0 0 0 0 0 0 0 0 0 0 0 0 0 0 0 0 0 0 0 0 0 390 483
8 5 7 6 6 6 7 7 1 2 3 6 3 5 2 0 0 0 0 0 0 0 0 0 0 0 0 0 0 0 0 0 0 0 0 0 0 0 0 0 0 0 0 0 0 0 519
3 4 5 5 5 5 6 7 2 1 5 8 4 3 1 0 0 0 0 0 0 0 0 0 0 0 0 0 0 0 0 0 0 0 0 0 0 0 0 0 0 0 0 0 0 10 23
1 7 4 4 4 5 5 6 5 2 6 9 5 1 0 0 0 0 0 0 0 0 0 0 0 0 0 0 0 0 0 0 0 0 0 0 0 0 0 0 0 0 0 0 1 77 38
7 8 3 5 5 5 4 4 4 5 2 6 3 2 0 0 0 0 0 0 0 0 0 0 0 0 0 0 0 0 0 0 0 0 0 0 0 0 0 0 0 0 0 0 0 0 0
5 6 2 4 4 3 3 2 2 4 0 1 1 0 1 0 0 0 0 0 0 0 0 0 0 0 0 0 0 0 0 0 0 0 0 0 0 0 0 0 0 0 0 0 0 0 0
3 2 3 4 2 2 2 2 1 2 2 1 0 0 0 0 0 0 0 0 0 0 0 0 0 0 0 0 0 0 0 0 0 0 0 0 0 0 0 0 0 0 0 0 0 0 0
0 5 5 3 2 2 2 2 0 0 2 0 0 0 0 0 0 0 0 0 0 0 0 0 0 0 0 0 0 0 0 0 0 0 0 0 0 0 0 0 0 0 0 0 0 0 0
1 5 3 5 3 2 3 1 0 0 1 0 0 0 0 0 0 0 0 0 0 0 0 0 0 0 0 0 0 0 0 0 0 0 0 0 0 0 0 0 0 0 0 0 0 0 0
0 0 3 5 4 3 2 2 0 0 0 0 0 0 0 0 0 0 0 0 0 0 0 0 0 0 0 0 0 0 0 0 0 0 0 0 0 0 0 0 0 0 0 0 0 0 0
1 0 0 3 4 4 3 1 0 0 0 0 0 0 0 0 0 0 0 0 0 0 0 0 0 0 0 0 0 0 0 0 0 0 0 0 0 0 0 0 0 0 0 0 0 0 0
2 0 1 0 4 6 4 1 0 0 0 0 0 0 0 0 0 0 0 0 0 0 0 0 0 0 0 0 0 0 0 0 0 0 0 0 0 0 0 0 0 0 0 0 0 0 0
4 0 2 1 1 7 5 1 0 0 0 0 0 0 0 0 0 0 0 0 0 0 0 0 0 0 0 0 0 0 0 0 0 0 0 0 0 0 0 0 0 0 0 0 0 0 0
3 3 3 5 1 2 7 2 0 0 0 0 0 0 0 0 0 0 0 0 0 0 0 0 0 0 0 0 0 0 0 0 0 0 0 0 0 0 0 0 0 0 0 0 0 0 0
2 2 1 7 2 1 7 4 0 0 0 0 0 0 0 0 0 0 0 0 0 0 0 0 0 0 0 0 0 0 0 0 0 0 0 0 0 0 0 0 0 0 0 0 0 0 0
1 4 1 5 1 2 2 5 2 0 0 0 0 0 0 0 0 0 0 0 0 0 0 0 0 0 0 0 0 0 0 0 0 0 0 0 0 0 0 0 0 0 0 0 0 0 3
1 5 1 4 10 7 2 6 6 0 1 0 0 0 0 0 0 0 0 0 0 0 0 0 0 0 0 0 0 0 0 0 0 0 0 0 0 0 0 0 0 0 0 0 0 0 0
2 6 1 4 8 9 6 2 8 2 0 0 0 0 0 0 0 0 0 0 0 0 0 0 0 0 0 0 0 0 0 0 0 0 0 0 0 0 0 0 0 0 0 0 0 0 0
4 7 2 4 5 8 8 3 7 4 0 0 0 0 0 0 0 0 0 0 0 0 0 0 0 0 0 0 0 0 0 0 0 0 0 0 0 0 0 0 0 0 0 0 0 0 0
5 7 2 7 7 5 3 3 5 7 2 1 0 0 0 0 0 0 0 0 0 0 0 0 0 0 0 0 0 0 0 0 0 0 0 0 0 0 0 0 0 0 0 0 0 0 0
4 7 5 8 8 7 5 1 3 6 5 0 0 0 0 0 0 0 0 0 0 0 0 0 0 0 0 0 0 0 0 0 0 0 0 0 0 0 0 0 0 0 0 0 0 0 0
4 2 5 6 9 7 3 1 8 4 6 0 0 0 0 0 0 0 0 0 0 0 0 0 0 0 0 0 0 0 0 0 0 0 0 0 0 0 0 0 0 0 0 0 0 0 0
CIN
-0 -0 -0 -0 -0 -0 -0 -0 -0 -0 -0 -0 -0 -0 -0 -0 -0 -0 -0 -0 -0 -0 -0 -0 -0 -0 -0 -0 -0 -0 -291 -455 -0 -0 -0 -0 -0 -0 -0 -0 -0 -140 -100 -79 -79 -78 -87
-0 -0 -0 -0 -0 -0 -0 -0 -0 -0 -0 -0 -0 -0 -0 -0 -0 -0 -0 -0 -0 -0 -0 -0 -0 -0 -0 -0 -0 -0 -0 -0 -0 -0 -0 -0 -0 -0 -0 -134 -74 -0 -138 -129 -111 -75 -96
-0 -0 -0 -0 -0 -0 -0 -0 -0 -0 -0 -0 -0 -0 -0 -0 -0 -0 -0 -0 -0 -0 -0 -0 -0 -0 -0 -0 -0 -0 -0 -0 -0 -0 -0 -0 -0 -0 -0 -0 -0 -168 -102 -110 -114 -126 -93
-0 -0 -0 -0 -0 -0 -0 -0 -1 -0 -0 -0 -0 -1 -0 -0 -0 -0 -0 -0 -0 -0 -0 -0 -0 -0 -0 -0 -0 -0 -0 -0 -0 -0 -0 -0 -0 -0 -0 -0 -0 -115 -136 -0 -0 -120 -115
-0 -0 -0 -0 -0 -0 -0 -0 -0 -0 -0 -0 -0 -1 -0 -0 -0 -0 -0 -0 -0 -0 -0 -0 -0 -0 -0 -0 -0 -0 -0 -0 -0 -0 -0 -0 -0 -0 -0 -0 -0 -65 -0 -0 -0 -144 -107
-0 -0 -0 -0 -0 -0 -0 -0 -0 -0 -0 -0 -0 -1 -1 -0 -0 -0 -0 -0 -0 -0 -0 -0 -0 -0 -0 -0 -0 -0 -0 -0 -0 -0 -0 -0 -0 -0 -0 -0 -0 -0 -0 -0 -0 -0 -140
-0 -0 -0 -0 -0 -0 -0 -0 -0 -0 -0 -0 -0 -1 -1 -1 -0 -0 -0 -0 -0 -0 -0 -0 -0 -0 -0 -0 -0 -0 -0 -0 -0 -0 -0 -0 -0 -0 -0 -0 -0 -0 -0 -0 -0 -0 -39
-0 -0 -0 -0 -0 -0 -0 -0 -0 -0 -0 -0 -0 -1 -1 -0 -0 -0 -0 -0 -0 -0 -0 -0 -0 -0 -0 -0 -0 -0 -0 -0 -0 -0 -0 -0 -0 -0 -0 -0 -0 -0 -0 -0 -0 -152 -164
-0 -0 -0 -0 -0 -0 -0 -0 -0 -0 -0 -0 -0 -1 -1 -0 -0 -0 -0 -0 -0 -0 -0 -0 -0 -0 -0 -0 -0 -0 -0 -0 -0 -0 -0 -0 -0 -0 -0 -0 -0 -0 -0 -0 -0 -0 -236
-0 -0 -0 -0 -0 -0 -0 -0 -0 -0 -0 -0 -0 -0 -1 -0 -0 -0 -0 -0 -0 -0 -0 -0 -0 -0 -0 -0 -0 -0 -0 -0 -0 -0 -0 -0 -0 -0 -0 -0 -0 -0 -0 -0 -0 -132 -99
-0 -0 -0 -0 -0 -0 -0 -0 -0 -0 -0 -0 -0 -0 -0 -0 -0 -0 -0 -0 -0 -0 -0 -0 -0 -0 -0 -0 -0 -0 -0 -0 -0 -0 -0 -0 -0 -0 -0 -0 -0 -0 -0 -0 -121 -114 -163
-0 -0 -0 -0 -0 -0 -0 -0 -0 -0 -0 -0 -0 -0 -0 -0 -0 -0 -0 -0 -0 -0 -0 -0 -0 -0 -0 -0 -0 -0 -0 -0 -0 -0 -0 -0 -0 -0 -0 -0 -0 -0 -0 -0 -0 -0 -0
-0 -0 -0 -0 -0 -0 -0 -0 -0 -0 -0 -0 -0 -1 -0 -0 -0 -0 -0 -0 -0 -0 -0 -0 -0 -0 -0 -0 -0 -0 -0 -0 -0 -0 -0 -0 -0 -0 -0 -0 -0 -0 -0 -0 -0 -0 -0
-0 -0 -0 -0 -0 -0 -0 -0 -0 -0 -0 -0 -0 -0 -0 -0 -0 -0 -0 -0 -0 -0 -0 -0 -0 -0 -0 -0 -0 -0 -0 -0 -0 -0 -0 -0 -0 -0 -0 -0 -0 -0 -0 -0 -0 -0 -0
-0 -0 -0 -0 -0 -0 -0 -0 -0 -0 -0 -0 -0 -0 -0 -0 -0 -0 -0 -0 -0 -0 -0 -0 -0 -0 -0 -0 -0 -0 -0 -0 -0 -0 -0 -0 -0 -0 -0 -0 -0 -0 -0 -0 -0 -0 -0
-0 -0 -0 -0 -0 -0 -0 -0 -0 -0 -0 -0 -0 -0 -0 -0 -0 -0 -0 -0 -0 -0 -0 -0 -0 -0 -0 -0 -0 -0 -0 -0 -0 -0 -0 -0 -0 -0 -0 -0 -0 -0 -0 -0 -0 -0 -0
-0 -0 -0 -0 -0 -0 -0 -0 -0 -0 -0 -0 -0 -0 -0 -0 -0 -0 -0 -0 -0 -0 -0 -0 -0 -0 -0 -0 -0 -0 -0 -0 -0 -0 -0 -0 -0 -0 -0 -0 -0 -0 -0 -0 -0 -0 -0
-0 -0 -0 -0 -0 -0 -0 -0 -0 -0 -0 -0 -0 -0 -0 -0 -0 -0 -0 -0 -0 -0 -0 -0 -0 -0 -0 -0 -0 -0 -0 -0 -0 -0 -0 -0 -0 -0 -0 -0 -0 -0 -0 -0 -0 -0 -0
-0 -0 -0 -0 -0 -0 -0 -0 -0 -0 -0 -0 -0 -0 -0 -0 -0 -0 -0 -0 -0 -0 -0 -0 -0 -0 -0 -0 -0 -0 -0 -0 -0 -0 -0 -0 -0 -0 -0 -0 -0 -0 -0 -0 -0 -0 -0
-0 -0 -0 -0 -0 -0 -0 -0 -0 -0 -0 -0 -0 -0 -0 -0 -0 -0 -0 -0 -0 -0 -0 -0 -0 -0 -0 -0 -0 -0 -0 -0 -0 -0 -0 -0 -0 -0 -0 -0 -0 -0 -0 -0 -0 -0 -0
-0 -0 -0 -0 -0 -0 -0 -0 -0 -0 -0 -0 -0 -0 -0 -0 -0 -0 -0 -0 -0 -0 -0 -0 -0 -0 -0 -0 -0 -0 -0 -0 -0 -0 -0 -0 -0 -0 -0 -0 -0 -0 -0 -0 -0 -0 -0
-0 -0 -0 -0 -0 -0 -0 -0 -0 -0 -0 -0 -0 -0 -0 -0 -0 -0 -0 -0 -0 -0 -0 -0 -0 -0 -0 -0 -0 -0 -0 -0 -0 -0 -0 -0 -0 -0 -0 -0 -0 -0 -0 -0 -0 -0 -3
-0 -0 -0 -0 -0 -0 -0 -0 -0 -0 -0 -0 -0 -0 -0 -0 -0 -0 -0 -0 -0 -0 -0 -0 -0 -0 -0 -0 -0 -0 -0 -0 -0 -0 -0 -0 -0 -0 -0 -0 -0 -0 -0 -0 -0 -0 -157
-0 -0 -0 -0 -0 -0 -0 -0 -0 -0 -0 -0 -0 -0 -0 -0 -0 -0 -0 -0 -0 -0 -0 -0 -0 -0 -0 -0 -0 -0 -0 -0 -0 -0 -0 -0 -0 -0 -0 -0 -0 -0 -0 -0 -0 -0 -0
-0 -0 -0 -0 -0 -0 -0 -0 -0 -0 -0 -0 -0 -0 -0 -0 -0 -0 -0 -0 -0 -0 -0 -0 -0 -0 -0 -0 -0 -0 -0 -0 -0 -0 -0 -0 -0 -0 -0 -0 -0 -0 -0 -0 -0 -0 -0
-0 -0 -0 -0 -0 -0 -0 -0 -0 -0 -0 -0 -0 -0 -0 -0 -0 -0 -0 -0 -0 -0 -0 -0 -0 -0 -0 -0 -0 -0 -0 -0 -0 -0 -0 -0 -0 -0 -0 -0 -0 -0 -0 -0 -0 -0 -0
-0 -0 -0 -0 -0 -0 -0 -0 -0 -0 -0 -0 -0 -0 -0 -0 -0 -0 -0 -0 -0 -0 -0 -0 -0 -0 -0 -0 -0 -0 -0 -0 -0 -0 -0 -0 -0 -0 -0 -0 -0 -0 -0 -0 -0 -0 -0
-0 -0 -0 -0 -0 -0 -0 -0 -0 -0 -0 -0 -0 -0 -0 -0 -0 -0 -0 -0 -0 -0 -0 -0 -0 -0 -0 -0 -0 -0 -0 -0 -0 -0 -0 -0 -0 -0 -0 -0 -0 -0 -0 -0 -0 -0 -0
-0 -0 -0 -0 -0 -0 -0 -0 -0 -0 -0 -0 -0 -0 -0 -0 -0 -0 -0 -0 -0 -0 -0 -0 -0 -0 -0 -0 -0 -0 -0 -0 -0 -0 -0 -0 -0 -0 -0 -0 -0 -0 -0 -0 -0 -0 -0
Wind_Speed
19 18 18 17 16 16 16 15 15 15 14 13 12 11 10 9 8 8 8 7 7 7 7 8 9 9 3 2 7 4 5 11 10 7 5 3 2 1 3 4 7 4 7 6 7 7 6
19 19 19 18 18 17 17 17 16 16 15 14 13 11 10 9 8 7 7 7 7 7 7 7 8 8 2 5 2 5 7 10 9 6 5 4 1 1 2 3 3 6 10 12 4 4 4
19 19 20 19 19 18 18 18 18 17 16 14 13 12 10 9 8 7 7 7 7 7 7 6 5 3 2 8 4 4 4 4 6 3 4 2 2 3 2 6 4 6 6 6 3 2 3
20 19 20 19 19 18 18 19 18 18 17 15 14 12 11 10 8 7 7 7 8 6 5 5 3 2 7 1 2 3 3 3 2 2 1 0 2 1 3 5 4 4 1 9 5 1 0
21 19 19 19 19 19 19 19 19 18 16 16 14 12 10 9 8 6 6 7 8 4 3 3 2 2 6 5 4 4 6 3 4 3 1 1 0 2 0 4 5 5 8 14 8 2 2
20 20 20 21 21 20 19 19 20 19 17 16 13 11 10 9 6 5 5 5 2 1 3 3 2 4 4 1 2 4 4 5 3 5 4 1 2 1 1 4 6 10 11 12 12 5 8
21 21 22 22 21 21 21 20 21 20 19 16 14 11 8 7 5 4 2 4 4 4 3 6 2 3 2 5 2 3 4 6 2 2 3 2 4 7 6 3 5 8 9 13 19 8 8
21 22 22 22 22 22 22 21 22 21 20 17 14 11 7 6 3 4 3 3 1 3 2 8 5 7 5 2 1 4 8 5 3 4 3 4 10 8 5 4 6 8 12 11 9 3 5
21 21 22 22 22 22 22 22 23 22 20 17 14 10 5 4 6 4 3 5 4 1 2 1 4 4 3 8 4 9 10 5 3 4 2 5 5 2 5 10 9 7 7 6 10 8 2
23 22 22 23 23 23 23 23 24 23 20 17 14 10 2 4 3 4 5 1 5 4 1 3 2 2 4 3 3 3 7 4 2 6 3 7 5 8 6 7 6 7 5 6 11 8 6
24 23 23 23 24 23 24 24 24 25 20 17 13 7 3 8 2 5 3 5 3 4 3 3 4 3 3 4 9 4 2 3 7 5 5 3 3 6 8 6 7 4 3 5 4 5 4
23 23 24 24 24 25 25 24 24 25 24 19 14 6 7 5 3 5 5 4 4 4 4 4 4 5 6 1 2 5 5 3 1 4 6 13 2 6 7 3 9 4 9 1 2 3 4
23 24 24 25 25 25 26 26 26 25 26 22 17 8 10 4 2 3 2 2 3 1 1 6 4 6 5 5 4 7 12 11 7 5 4 5 8 3 6 8 2 7 5 3 3 2 3
24 26 25 25 26 26 27 27 27 26 26 22 8 13 6 4 3 4 3 2 1 1 1 2 4 8 6 6 3 5 9 10 7 6 4 4 3 4 5 5 2 4 4 4 2 2 5
25 24 25 25 26 26 27 28 28 28 25 19 6 2 3 3 8 3 2 2 1 2 2 1 5 5 4 4 2 4 8 8 6 14 7 4 4 1 4 2 4 5 4 4 5 1 4
24 25 26 26 26 27 28 29 29 30 27 8 2 2 2 3 8 2 0 2 3 4 3 2 3 2 8 6 7 7 8 2 3 10 14 1 6 1 2 4 4 4 8 3 0 3 3
25 26 26 26 27 27 28 29 30 31 31 2 2 2 5 2 4 1 2 3 5 4 5 3 3 4 3 4 4 4 4 3 3 1 10 5 4 2 4 3 2 5 5 4 2 3 3
25 26 27 26 27 27 28 30 30 29 30 1 2 2 3 3 2 1 2 2 2 3 3 3 2 3 3 2 3 3 3 2 7 2 6 5 3 5 2 2 4 1 2 4 5 4 1
24 26 26 27 26 27 29 30 31 30 25 4 2 3 3 4 2 2 2 3 3 6 4 4 2 4 3 3 3 1 3 3 7 2 1 6 4 4 5 5 3 2 2 3 4 2 6
21 25 26 27 27 27 28 30 32 32 27 2 1 3 2 1 2 1 2 2 2 3 3 3 3 2 3 3 5 4 2 2 5 4 5 2 3 6 8 3 2 3 1 1 5 5 4
21 24 24 24 26 27 27 29 31 34 29 3 5 3 3 3 2 1 1 2 2 2 3 6 4 6 3 3 2 2 1 2 2 6 3 2 5 3 3 1 1 3 3 2 6 2 6
20 23 24 22 24 26 25 26 29 33 31 4 4 3 2 2 1 4 0 1 1 1 3 3 5 3 3 3 2 1 0 1 2 1 2 1 3 3 4 1 1 3 4 2 4 2 2
19 21 23 22 24 24 24 24 24 27 19 5 3 0 3 2 1 3 2 1 1 1 3 5 3 4 3 3 2 3 3 2 3 4 1 2 5 4 3 2 2 5 2 4 3 1 2
18 19 22 22 21 22 23 22 22 21 16 2 2 2 3 1 0 2 1 1 2 2 1 3 3 2 4 1 6 5 8 8 7 4 1 3 4 1 2 3 6 6 6 5 3 0 1
18 18 21 21 21 20 20 22 20 19 18 2 2 2 3 2 2 1 2 1 1 1 2 1 3 3 2 3 3 5 3 2 5 9 4 2 3 3 3 2 2 4 2 2 3 2 2
18 17 20 20 20 20 20 20 20 18 16 2 2 2 2 3 2 3 1 2 1 1 3 1 2 4 1 2 2 4 5 2 3 4 1 6 5 1 3 3 4 6 3 3 3 6 3
18 18 19 19 20 19 19 19 20 18 16 4 2 4 2 3 1 2 0 1 2 1 0 1 4 2 2 2 2 2 3 1 4 2 2 3 3 2 1 3 2 2 2 1 5 5 3
17 18 18 18 19 18 18 19 18 17 16 7 3 3 3 3 5 3 2 2 2 1 1 3 3 2 2 3 2 3 2 3 3 2 2 2 0 1 1 3 3 1 2 4 5 5 6
17 19 17 18 17 17 18 18 16 15 13 8 2 2 2 4 4 3 6 7 3 0 2 1 3 1 1 3 2 3 3 3 2 4 2 3 1 2 4 3 2 2 6 4 6 8 10
Wind_Direction
7 6 4 3 2 0 357 355 353 351 347 343 340 335 328 320 316 313 311 309 303 302 301 306 306 320 281 212 254 338 34 133 140 160 178 171 178 165 333 322 319 227 310 307 280 245 229
5 3 1 1 360 358 357 355 352 349 345 342 340 334 327 318 311 308 308 306 301 297 297 297 305 312 243 236 65 5 110 144 149 147 164 190 217 242 287 299 300 310 300 302 308 260 252
2 1 359 357 358 356 355 355 351 346 345 341 339 334 327 316 308 303 303 303 295 297 294 294 302 289 226 242 98 13 127 161 167 156 149 199 237 256 320 307 335 312 322 332 32 278 254
2 358 357 354 353 353 351 353 350 345 342 339 336 332 325 314 303 297 296 296 293 294 288 268 276 241 250 240 332 259 184 120 149 185 219 138 181 264 272 311 321 344 30 350 351 303 4
1 358 355 353 351 351 347 347 350 345 340 339 335 330 322 312 299 289 289 289 292 271 240 208 206 259 261 317 246 195 182 146 144 162 249 296 233 44 210 348 333 33 331 328 325 268 256
358 357 355 352 350 348 346 343 348 345 341 338 332 328 320 311 294 277 274 278 313 161 168 210 258 262 237 188 192 127 170 153 117 120 130 137 81 207 138 326 315 316 321 317 314 311 272
357 356 354 351 348 345 344 343 346 344 341 338 333 325 320 316 283 237 231 147 168 168 216 212 173 276 2 330 191 130 156 142 92 95 153 63 233 248 285 286 275 289 290 302 300 311 279
356 353 351 349 347 343 342 341 345 344 342 338 334 327 327 309 223 171 174 218 270 2 254 223 251 280 252 285 139 122 169 157 180 172 153 199 248 276 251 250 259 283 294 310 305 308 271
356 352 350 347 345 342 341 339 344 344 342 338 335 327 321 283 154 150 221 230 118 42 253 147 190 217 239 180 188 172 178 148 148 158 180 242 243 133 276 276 266 275 268 309 313 321 95
358 352 350 346 344 343 342 341 343 344 341 337 334 328 315 160 166 161 224 193 250 227 310 135 198 165 148 216 143 126 173 152 135 211 179 272 257 242 248 253 234 283 201 297 321 330 341
360 353 349 346 344 344 343 340 339 344 342 337 334 327 204 196 76 198 52 303 198 219 133 129 143 133 139 210 132 161 236 125 203 179 199 237 232 216 237 241 188 295 341 349 340 326 294
359 352 349 347 346 344 342 341 340 342 344 339 328 281 176 193 240 259 315 143 187 234 96 135 129 150 155 172 107 116 160 91 98 214 234 261 232 257 252 193 217 280 294 71 90 321 277
359 355 348 348 347 345 343 342 341 343 346 342 333 209 175 180 93 339 255 188 207 337 343 155 155 164 152 148 116 161 173 191 208 209 245 288 245 233 217 262 176 205 210 270 264 230 352
360 356 349 347 346 345 344 343 342 344 347 347 9 145 230 250 304 323 197 193 207 347 204 96 118 137 175 152 144 152 171 202 223 212 295 310 173 176 159 237 321 171 223 214 253 329 331
358 349 350 347 346 346 345 344 344 344 346 347 136 195 247 264 209 265 218 210 328 220 330 83 135 144 161 173 171 175 204 228 227 201 217 213 254 253 213 205 232 130 213 20 121 104 254
355 352 351 347 346 346 346 346 345 344 345 345 204 197 44 41 170 236 229 263 256 238 294 204 170 201 174 160 178 201 172 144 243 210 222 198 272 215 111 150 83 263 132 188 206 212 269
354 353 350 348 348 347 347 347 347 347 346 52 226 143 20 135 193 155 220 251 268 258 244 210 146 123 109 136 165 174 153 109 344 187 205 191 244 184 270 198 215 159 186 79 121 314 267
354 351 352 350 348 347 347 347 349 350 348 144 294 113 69 211 183 359 212 236 295 339 2 240 87 84 107 87 119 133 123 32 357 218 155 190 221 259 286 93 279 260 130 196 248 184 68
350 351 351 351 349 349 349 348 348 351 356 311 51 95 140 277 195 194 288 277 285 0 29 11 77 33 61 95 116 141 135 89 11 85 113 168 217 268 184 160 144 176 98 106 100 142 196
345 350 351 351 351 351 351 349 349 350 353 271 272 128 127 75 4 94 358 354 314 34 63 51 71 119 110 82 35 136 124 58 356 63 55 208 197 261 264 338 23 186 185 169 244 218 201
342 348 350 349 352 352 352 352 351 349 350 286 5 69 359 167 154 133 246 4 323 22 49 29 65 52 70 118 84 82 65 332 68 5 56 324 256 212 269 301 295 80 342 281 226 316 254
340 346 349 348 351 353 354 355 355 353 343 68 14 347 6 57 277 167 149 139 21 74 354 42 111 72 69 116 50 143 29 233 307 16 5 18 223 206 219 218 348 147 49 107 57 41 218
337 343 348 348 351 353 355 356 0 3 355 35 18 22 291 25 92 185 143 139 19 247 74 48 143 135 133 71 6 337 286 343 309 278 192 247 174 184 221 46 168 215 53 61 94 69 318
335 339 345 347 347 351 354 356 1 6 18 318 26 290 315 64 271 84 81 189 62 59 146 40 92 166 78 44 122 99 94 91 51 54 24 161 133 337 150 204 232 60 96 62 58 9 351
333 336 344 345 347 348 351 355 358 3 6 333 4 327 355 320 330 164 63 35 58 13 89 85 59 18 321 146 123 128 185 214 62 49 50 342 154 122 243 218 51 193 195 341 333 249 230
333 336 343 344 345 348 349 353 355 359 3 342 12 312 314 308 146 331 339 12 122 97 162 123 61 345 49 70 136 191 182 135 142 140 107 81 67 293 158 228 247 81 56 355 220 249 167
333 335 342 340 342 344 347 350 353 355 359 356 328 358 282 295 260 276 321 32 107 106 38 313 349 27 339 120 144 184 143 340 164 140 28 26 14 36 105 263 127 92 336 114 239 45 268
332 334 339 335 334 341 343 345 348 350 356 2 318 355 347 300 280 233 273 186 146 131 218 75 203 154 115 116 189 140 158 98 129 80 88 79 290 107 224 253 231 132 244 264 357 304 295
330 334 333 330 331 337 339 339 339 344 352 6 303 27 332 235 304 306 279 279 286 162 135 138 23 131 112 117 167 142 141 158 159 138 167 186 332 331 243 290 29 280 276 281 291 291 306